Regional Weather Roundup
Issued by NWS Cleveland, OH

Home | Current Version | Previous Version | Graphics & Text | Print | Product List | Glossary On
Versions: 1 2 3 4 5 6 7 8 9 10 11 12 13 14 15 16 17 18 19 20 21 22 23 24 25 26 27 28 29 30 31 32 33 34 35 36 37 38 39 40 41 42 43 44 45 46 47 48 49 50
000
ASUS41 KCLE 210810
RWRCLE
OHIO REGIONAL WEATHER ROUNDUP
NATIONAL WEATHER SERVICE WILMINGTON, OH
400 AM EDT TUE OCT 21 2014

NOTE: "FAIR" INDICATES FEW OR NO CLOUDS BELOW 12,000 FEET WITH NO
SIGNIFICANT WEATHER AND/OR OBSTRUCTIONS TO VISIBILITY.

OHZ001>008-015>018-024>027-034-035-043-044-210900-
   NORTHWEST OHIO

CITY           SKY/WX    TMP DP  RH WIND       PRES   REMARKS
DEFIANCE       CLOUDY    49  43  80 NW6       29.93R
FINDLAY        LGT RAIN  51  46  83 N12       29.89R
TOLEDO EXPRESS CLOUDY    49  43  80 N7        29.90S
TOLEDO METCALF CLOUDY    50  43  77 NW9       29.91R
LIMA           CLOUDY    50  46  86 NW10      29.91R
$$

OHZ009>014-019>023-028>033-038-089-210900-
   NORTHEAST OHIO

CITY           SKY/WX    TMP DP  RH WIND       PRES   REMARKS
CLE-HOPKINS    LGT RAIN  52  50  93 N7        29.86R FOG
CLE-LAKEFRONT  CLOUDY    55  49  80 N15       29.82S
CUY CO. ARPT   NOT AVBL
LORAIN-ELYRIA  CLOUDY    51  50  96 N9        29.86R
ASHTABULA      CLOUDY    51  50  96 CALM      29.82S FOG
AKRON-CANTON   CLOUDY    52  49  89 W6        29.84S FOG
WOOSTER        CLOUDY    53  50  89 W6        29.85S FOG
MANSFIELD      CLOUDY    50  50 100 W5        29.86S FOG
YOUNGSTOWN     FOG       51  50  96 W3        29.82S VSB 1
$$

OHZ042-051>053-060>062-070>072-077>081-210900-
  SOUTHWEST OHIO

CITY           SKY/WX    TMP DP  RH WIND       PRES   REMARKS
CINC-COVINGTON MOCLDY    51  47  86 W7        29.93R
CINC-LUNKEN    CLOUDY    55  49  80 W8        29.94R
HAMILTON       CLEAR     48  47  96 NW5       29.94R
DAYTON         MOCLDY    50  47  89 W7        29.92S
WRIGHT-PAT AFB CLOUDY    51  49  93 W6        29.91S
DAYTON GENERAL PTCLDY    51  48  89 NW6       29.91S
WILMINGTON     CLOUDY    51  48  89 NW5       29.90F FOG
$$

OHZ036-037-039>041-045>050-054>059-063>069-073>076-082>088-210900-
  CENTRAL AND SOUTHEAST OHIO

CITY           SKY/WX    TMP DP  RH WIND       PRES   REMARKS
COLUMBUS       CLOUDY    49  47  93 CALM      29.88F
OSU AIRPORT    CLOUDY    48  47  96 W5        29.89S FOG
BOLTON FIELD   LGT RAIN  50  49  98 W5        29.89S
RICKENBACK AFB LGT RAIN  47  47  97 CALM      29.88F
NEWARK         CLOUDY    50  48  93 W3        29.88S FOG
MARION         CLOUDY    50  48  93 NW7       29.88S FOG
LANCASTER      CLOUDY    50  47  89 W5        29.89R
ZANESVILLE     CLOUDY    48  46  93 SW3       29.87F FOG
NEW PHILLY     CLOUDY    51  49  92 CALM      29.86S
$$


USA.gov is the U.S. government's official web portal to all federal, state and local government web resources and services.